User: anonymous   Login
Location: Unspecified
(0.0000°N, 0.0000°E)
Time: 01:21:17
(UTC+00:00)
Language:

HORYU 2 - Orbit

View from above orbital plane
View from above orbital plane
View from above satellite
View from above satellite

Ground track
Ground track

The orbit data is extracted from the following two-line orbital elements,

1 38340U 12025D   23081.21780816  .00003855  00000-0  54150-3 0  9994
2 38340  98.1713 168.6240 0011801  61.9454 298.2948 14.77965815583658
Epoch (UTC): 22 March 2023 05:13:38
Eccentricity: 0.0011801
inclination: 98.1713°
perigee height: 627 km
apogee height: 644 km
right ascension of ascending node: 168.6240°
argument of perigee: 61.9454°
revolutions per day: 14.77965815
mean anomaly at epoch: 298.2948°
orbit number at epoch: 58365

The dashed part of the orbit path shows where the satellite is in the earth's shadow,  

DLR